| time (UTC) | temp F | wind direction | speed MPH | gust MPH | rain 1hr in | rain 24hr in | rain mn in | humidity % | barometer mb |
| 20260510130036 | 49 | 138 | 0.0 | 11.0 | 0.04 | 0.07 | 0.07 | 96 | 1007.4 |
| 20260510124518 | 49 | 125 | 0.0 | 4.0 | 0.04 | 0.07 | 0.07 | 96 | 1006.8 |
| 20260510123013 | 49 | 102 | 0.0 | 4.0 | 0.03 | 0.06 | 0.06 | 96 | 1006.4 |
| 20260510121512 | 49 | 143 | 0.0 | 2.0 | 0.00 | 0.03 | 0.03 | 96 | 1006.5 |
| 20260510120025 | 49 | 228 | 0.0 | 2.0 | 0.00 | 0.03 | 0.03 | 96 | 1006.3 |
| 20260510114514 | 49 | 243 | 0.0 | 0.0 | 0.00 | 0.03 | 0.03 | 96 | 1006.4 |
| 20260510113007 | 48 | 209 | 0.0 | 0.0 | 0.00 | 0.03 | 0.03 | 96 | 1006.3 |
| 20260510111505 | 48 | 359 | 0.0 | 5.0 | 0.00 | 0.03 | 0.03 | 96 | 1006.0 |
| 20260510110007 | 48 | 47 | 0.0 | 0.0 | 0.00 | 0.03 | 0.03 | 96 | 1005.9 |
| 20260510104601 | 47 | 303 | 0.0 | 0.0 | 0.00 | 0.03 | 0.03 | 96 | 1005.9 |
| 20260510103058 | 46 | 229 | 0.0 | 0.0 | 0.00 | 0.03 | 0.03 | 96 | 1005.5 |
| 20260510101556 | 45 | 123 | 0.0 | 0.0 | 0.00 | 0.03 | 0.03 | 96 | 1005.5 |
| 20260510100101 | 44 | 359 | 0.0 | 0.0 | 0.00 | 0.03 | 0.03 | 96 | 1005.4 |
| 20260510094553 | 43 | 255 | 0.0 | 0.0 | 0.00 | 0.03 | 0.03 | 95 | 1005.4 |
| 20260510093055 | 43 | 289 | 0.0 | 0.0 | 0.00 | 0.03 | 0.03 | 95 | 1005.1 |
| 20260510091552 | 42 | 288 | 0.0 | 0.0 | 0.00 | 0.03 | 0.03 | 95 | 1004.9 |
| 20260510090052 | 44 | 193 | 0.0 | 0.0 | 0.00 | 0.03 | 0.03 | 95 | 1004.6 |
| 20260510084550 | 44 | 278 | 0.0 | 0.0 | 0.00 | 0.03 | 0.03 | 95 | 1005.2 |
| 20260510083059 | 44 | 276 | 0.0 | 0.0 | 0.00 | 0.03 | 0.03 | 95 | 1004.7 |
| 20260510081547 | 44 | 277 | 0.0 | 0.0 | 0.00 | 0.03 | 0.03 | 95 | 1004.3 |
| 20260510080052 | 45 | 277 | 0.0 | 0.0 | 0.00 | 0.03 | 0.03 | 95 | 1004.6 |
| 20260510074546 | 45 | 277 | 0.0 | 0.0 | 0.00 | 0.03 | 0.03 | 95 | 1004.6 |
| 20260510073045 | 46 | 222 | 0.0 | 0.0 | 0.00 | 0.03 | 0.03 | 95 | 1004.4 |
| 20260510071543 | 45 | 272 | 0.0 | 0.0 | 0.00 | 0.03 | 0.03 | 95 | 1004.6 |
| 20260510070041 | 45 | 220 | 0.0 | 0.0 | 0.01 | 0.03 | 0.03 | 95 | 1004.5 |
| 20260510064540 | 44 | 220 | 0.0 | 0.0 | 0.01 | 0.03 | 0.03 | 94 | 1004.3 |
| 20260510063039 | 44 | 218 | 0.0 | 0.0 | 0.03 | 0.03 | 0.03 | 94 | 1004.4 |
| 20260510061538 | 44 | 218 | 0.0 | 0.0 | 0.03 | 0.03 | 0.03 | 94 | 1004.4 |
| 20260510060038 | 44 | 217 | 0.0 | 0.0 | 0.02 | 0.02 | 0.02 | 94 | 1004.6 |
| 20260510054535 | 44 | 218 | 0.0 | 0.0 | 0.02 | 0.02 | 0.02 | 93 | 1004.5 |
| 20260510053033 | 43 | 219 | 0.0 | 0.0 | 0.00 | 0.00 | 0.00 | 92 | 1004.7 |
| 20260510051532 | 43 | 219 | 0.0 | 0.0 | 0.00 | 0.00 | 0.00 | 92 | 1004.6 |
| 20260510050031 | 43 | 217 | 0.0 | 0.0 | 0.00 | 0.00 | 0.00 | 92 | 1004.4 |
| 20260510044529 | 43 | 359 | 0.0 | 0.0 | 0.00 | 0.00 | 0.00 | 92 | 1004.5 |
| 20260510043027 | 43 | 218 | 0.0 | 0.0 | 0.00 | 0.00 | 0.00 | 91 | 1004.7 |
| 20260510041525 | 43 | 219 | 0.0 | 0.0 | 0.00 | 0.00 | 0.00 | 91 | 1004.5 |
| 20260510040024 | 43 | 359 | 0.0 | 0.0 | 0.00 | 0.00 | 0.00 | 91 | 1004.2 |
| 20260510034527 | 43 | 218 | 0.0 | 0.0 | 0.00 | 0.00 | 0.00 | 90 | 1003.9 |
| 20260510033024 | 43 | 218 | 0.0 | 0.0 | 0.00 | 0.00 | 0.00 | 90 | 1004.0 |
| 20260510031520 | 44 | 218 | 0.0 | 0.0 | 0.00 | 0.00 | 0.00 | 90 | 1004.2 |
| 20260510030024 | 44 | 218 | 0.0 | 0.0 | 0.00 | 0.00 | 0.00 | 89 | 1004.4 |
| 20260510024519 | 45 | 217 | 0.0 | 0.0 | 0.00 | 0.00 | 0.00 | 88 | 1004.3 |
| 20260510023018 | 45 | 217 | 0.0 | 0.0 | 0.00 | 0.00 | 0.00 | 88 | 1004.6 |
| 20260510021524 | 46 | 217 | 0.0 | 0.0 | 0.00 | 0.00 | 0.00 | 88 | 1005.0 |
| 20260510020018 | 46 | 218 | 0.0 | 0.0 | 0.00 | 0.00 | 0.00 | 87 | 1004.9 |
| 20260510014518 | 46 | 217 | 0.0 | 0.0 | 0.00 | 0.00 | 0.00 | 86 | 1004.9 |
| 20260510013016 | 47 | 218 | 0.0 | 0.0 | 0.00 | 0.00 | 0.00 | 84 | 1004.7 |
| 20260510011517 | 47 | 217 | 0.0 | 0.0 | 0.00 | 0.00 | 0.00 | 83 | 1004.6 |
| 20260510010016 | 48 | 218 | 0.0 | 0.0 | 0.00 | 0.00 | 0.00 | 82 | 1004.6 |
| 20260510004515 | 49 | 218 | 0.0 | 0.0 | 0.00 | 0.00 | 0.00 | 80 | 1004.7 |
| 20260510003014 | 50 | 218 | 0.0 | 0.0 | 0.00 | 0.00 | 0.00 | 79 | 1004.5 |
| 20260510001514 | 51 | 175 | 0.0 | 0.0 | 0.00 | 0.00 | 0.00 | 77 | 1004.5 |
| 20260510000015 | 52 | 176 | 0.0 | 1.0 | 0.00 | 0.00 | 0.00 | 75 | 1004.6 |
| 20260509234528 | 53 | 120 | 0.0 | 5.0 | 0.00 | 0.00 | 0.00 | 75 | 1004.5 |
| 20260509233013 | 53 | 156 | 1.0 | 8.0 | 0.00 | 0.00 | 0.00 | 74 | 1004.4 |
| 20260509231517 | 53 | 154 | 0.0 | 4.0 | 0.00 | 0.00 | 0.00 | 73 | 1004.6 |
| 20260509230013 | 54 | 108 | 2.0 | 8.0 | 0.00 | 0.00 | 0.00 | 72 | 1004.5 |
| 20260509224527 | 54 | 125 | 5.0 | 12.0 | 0.00 | 0.00 | 0.00 | 69 | 1004.3 |
| 20260509223012 | 55 | 189 | 1.0 | 7.0 | 0.00 | 0.00 | 0.00 | 68 | 1004.3 |
| 20260509221512 | 56 | 164 | 1.0 | 11.0 | 0.00 | 0.00 | 0.00 | 67 | 1004.3 |
| 20260509220010 | 56 | 112 | 1.0 | 7.0 | 0.00 | 0.00 | 0.00 | 66 | 1004.4 |
| 20260509214509 | 57 | 294 | 2.0 | 6.0 | 0.00 | 0.00 | 0.00 | 65 | 1004.5 |
| 20260509213009 | 57 | 88 | 0.0 | 12.0 | 0.00 | 0.00 | 0.00 | 63 | 1004.6 |
| 20260509211509 | 58 | 175 | 4.0 | 10.0 | 0.00 | 0.00 | 0.00 | 63 | 1004.4 |
| 20260509210007 | 59 | 158 | 1.0 | 11.0 | 0.00 | 0.00 | 0.00 | 61 | 1004.6 |
| 20260509204506 | 59 | 147 | 1.0 | 14.0 | 0.00 | 0.00 | 0.00 | 61 | 1004.6 |
| 20260509203005 | 59 | 126 | 3.0 | 12.0 | 0.00 | 0.00 | 0.00 | 60 | 1004.8 |
| 20260509201503 | 59 | 87 | 3.0 | 11.0 | 0.00 | 0.00 | 0.00 | 58 | 1005.0 |
| 20260509200003 | 60 | 143 | 4.0 | 14.0 | 0.00 | 0.00 | 0.00 | 57 | 1005.0 |
| 20260509194501 | 60 | 183 | 3.0 | 15.0 | 0.00 | 0.00 | 0.00 | 58 | 1005.0 |
| 20260509193100 | 60 | 116 | 4.0 | 11.0 | 0.00 | 0.00 | 0.00 | 56 | 1005.3 |
| 20260509191558 | 60 | 163 | 2.0 | 11.0 | 0.00 | 0.00 | 0.00 | 56 | 1005.4 |
| 20260509190058 | 60 | 222 | 3.0 | 15.0 | 0.00 | 0.00 | 0.00 | 55 | 1005.5 |
| 20260509184555 | 60 | 43 | 1.0 | 13.0 | 0.00 | 0.00 | 0.00 | 55 | 1005.6 |
| 20260509183055 | 60 | 88 | 2.0 | 11.0 | 0.00 | 0.00 | 0.00 | 51 | 1005.7 |
| 20260509181608 | 61 | 125 | 5.0 | 15.0 | 0.00 | 0.00 | 0.00 | 50 | 1005.8 |
| 20260509180112 | 61 | 359 | 2.0 | 16.0 | 0.00 | 0.00 | 0.00 | 48 | 1006.1 |
| 20260509174551 | 61 | 67 | 3.0 | 15.0 | 0.00 | 0.00 | 0.00 | 45 | 1006.3 |
| 20260509173106 | 62 | 108 | 8.0 | 16.0 | 0.00 | 0.00 | 0.00 | 41 | 1006.3 |
| 20260509171553 | 61 | 106 | 4.0 | 11.0 | 0.00 | 0.00 | 0.00 | 42 | 1006.5 |
| 20260509170052 | 60 | 113 | 7.0 | 16.0 | 0.00 | 0.00 | 0.00 | 41 | 1006.6 |
| 20260509164546 | 61 | 127 | 2.0 | 10.0 | 0.00 | 0.00 | 0.00 | 41 | 1006.7 |
| 20260509163045 | 61 | 160 | 4.0 | 13.0 | 0.00 | 0.00 | 0.00 | 38 | 1006.8 |
| 20260509161557 | 61 | 141 | 5.0 | 11.0 | 0.00 | 0.00 | 0.00 | 36 | 1006.9 |
| 20260509160040 | 61 | 116 | 0.0 | 6.0 | 0.00 | 0.00 | 0.00 | 38 | 1007.1 |
| 20260509154537 | 60 | 129 | 2.0 | 15.0 | 0.00 | 0.00 | 0.00 | 35 | 1007.5 |
| 20260509153035 | 60 | 138 | 6.0 | 13.0 | 0.00 | 0.00 | 0.00 | 35 | 1007.8 |
| 20260509151532 | 59 | 106 | 0.0 | 9.0 | 0.00 | 0.00 | 0.00 | 39 | 1008.0 |
| 20260509150027 | 58 | 77 | 0.0 | 7.0 | 0.00 | 0.00 | 0.00 | 35 | 1008.3 |
| 20260509144523 | 57 | 258 | 0.0 | 4.0 | 0.00 | 0.00 | 0.00 | 36 | 1008.3 |
| 20260509143020 | 56 | 95 | 1.0 | 8.0 | 0.00 | 0.00 | 0.00 | 39 | 1008.4 |
| 20260509141534 | 55 | 9 | 0.0 | 0.0 | 0.00 | 0.00 | 0.00 | 46 | 1008.5 |
| 20260509140012 | 53 | 11 | 0.0 | 7.0 | 0.00 | 0.00 | 0.00 | 51 | 1008.6 |
| 20260509134523 | 52 | 354 | 0.0 | 7.0 | 0.00 | 0.00 | 0.00 | 51 | 1008.6 |
| 20260509133005 | 50 | 345 | 1.0 | 6.0 | 0.00 | 0.00 | 0.00 | 55 | 1008.9 |
| 20260509131600 | 49 | 50 | 1.0 | 4.0 | 0.00 | 0.00 | 0.00 | 54 | 1009.0 |